Malaga, Spain

3:41 PM CEST on August 16, 2017 (GMT +0200)
Malaga

Weather History for LEMG - January, 2014

Change the Weather History Date:

Tuesday, January 28, 2014

  Actual Average Record
Temperature  
Mean Temperature 54 °F -  
Max Temperature 61 °F 61 °F 70 °F (2015)
Min Temperature 48 °F 45 °F 33 °F (2005)
Degree Days  
Heating Degree Days 10    
Growing Degree Days 4 (Base 50)    
Moisture  
Dew Point 37 °F    
Average Humidity 49    
Maximum Humidity 71    
Minimum Humidity 24    
Precipitation  
Precipitation 0.00 in 0.10 in - ()
Sea Level Pressure  
Sea Level Pressure 29.97 in    
Wind  
Wind Speed 12 mph ()    
Max Wind Speed 23 mph    
Max Gust Speed 36 mph    
Visibility 7.8 miles    
Events      
Averages and records for this station are not official NWS values.
T = Trace of Precipitation, MM = Missing Value Source: Averaged Metar Reports

Daily Weather History Graph

Daily Weather History Graph

Search for Another Location

Airport or City:

Trip Planner

Search our weather history database for the weather conditions in past years. The results will help you decide how hot, cold, wet, or windy it might be!

Date:

Astronomy

Jan. 28, 2014 Rise Set
Actual Time 8:22 AM CET 6:39 PM CET
Civil Twilight 7:55 AM CET 7:06 PM CET
Nautical Twilight 7:24 AM CET 7:37 PM CET
Astronomical Twilight 6:53 AM CET 8:08 PM CET
Moon 5:49 AM CET (1/28) 4:14 PM CET (1/28)
Length of Visible Light 11h 11m
Length of Day
10h 16m
Waning Crescent, 9% of the Moon is Illuminated
Jan 28
Waning Crescent
Jan 30
New
Feb 6
First Quarter
Feb 15
Full
Feb 22
Last Quarter

Hourly Weather History & Observations

Time (CET) Temp. Dew Point Humidity Pressure Visibility Wind Dir Wind Speed Gust Speed Precip Events Conditions
12:00 AM 56 °F 36 °F 35% 30.07 in - WNW 9.2 mph - -  
12:00 AM 55.4 °F 37.4 °F 51% 30.06 in 6.2 mi WNW 10.4 mph - N/A   Scattered Clouds
12:30 AM 55.4 °F 37.4 °F 51% 30.06 in 6.2 mi WNW 11.5 mph - N/A   Scattered Clouds
1:00 AM 55 °F 35 °F 36% 30.08 in 19 mi WNW 12.7 mph - -   Partly Cloudy
1:00 AM 53.6 °F 35.6 °F 51% 30.06 in 6.2 mi WNW 11.5 mph - N/A   Scattered Clouds
1:30 AM 53.6 °F 35.6 °F 51% 30.06 in 6.2 mi WNW 18.4 mph - N/A   Scattered Clouds
2:00 AM 54 °F 34 °F 35% 30.08 in - WNW 18.4 mph - -  
2:00 AM 53.6 °F 35.6 °F 51% 30.06 in 6.2 mi WNW 17.3 mph - N/A   Scattered Clouds
2:30 AM 51.8 °F 35.6 °F 54% 30.06 in 6.2 mi NW 13.8 mph 25.3 mph N/A   Scattered Clouds
3:00 AM 54 °F 35 °F 36% 30.06 in - WNW 20.7 mph - -  
3:00 AM 51.8 °F 35.6 °F 54% 30.04 in 6.2 mi WNW 17.3 mph 31.1 mph N/A   Scattered Clouds
3:30 AM 51.8 °F 35.6 °F 54% 30.04 in 6.2 mi WNW 23.0 mph 35.7 mph N/A   Scattered Clouds
4:00 AM 52 °F 36 °F 42% 30.05 in 19 mi NW 11.5 mph - -   Partly Cloudy
4:00 AM 50.0 °F 35.6 °F 58% 30.04 in 6.2 mi NW 11.5 mph - N/A   Scattered Clouds
4:30 AM 50.0 °F 35.6 °F 58% 30.04 in 6.2 mi NW 9.2 mph - N/A   Partly Cloudy
5:00 AM 52 °F 37 °F 45% 30.04 in - WNW 17.3 mph - -  
5:00 AM 50.0 °F 37.4 °F 62% 30.04 in 6.2 mi WNW 17.3 mph 29.9 mph N/A   Partly Cloudy
5:30 AM 50.0 °F 37.4 °F 62% 30.01 in 6.2 mi WNW 17.3 mph 28.8 mph N/A   Partly Cloudy
6:00 AM 51 °F 37 °F 47% 30.04 in - NW 13.8 mph - -  
6:00 AM 50.0 °F 37.4 °F 62% 30.01 in 6.2 mi NW 12.7 mph - N/A   Partly Cloudy
6:30 AM 50.0 °F 37.4 °F 62% 30.01 in 6.2 mi NW 15.0 mph 27.6 mph N/A   Partly Cloudy
7:00 AM 51 °F 37 °F 48% 30.04 in 19 mi WNW 16.1 mph - -   Scattered Clouds
7:00 AM 50.0 °F 37.4 °F 62% 30.04 in 6.2 mi NW 13.8 mph - N/A   Partly Cloudy
7:30 AM 50.0 °F 37.4 °F 62% 30.04 in 6.2 mi WNW 16.1 mph - N/A   Partly Cloudy
8:00 AM 50 °F 37 °F 51% 30.06 in - WNW 15.0 mph - -  
8:00 AM 48.2 °F 37.4 °F 66% 30.04 in 6.2 mi WNW 13.8 mph - N/A   Scattered Clouds
8:30 AM 48.2 °F 37.4 °F 66% 30.04 in 6.2 mi NW 12.7 mph - N/A   Scattered Clouds
9:00 AM 50 °F 37 °F 51% 30.07 in - WNW 9.2 mph - -  
9:00 AM 48.2 °F 37.4 °F 66% 30.06 in 6.2 mi WNW 9.2 mph - N/A   Partly Cloudy
9:30 AM 50.0 °F 37.4 °F 62% 30.04 in 6.2 mi WNW 12.7 mph - N/A   Partly Cloudy
10:00 AM 52 °F 38 °F 47% 30.07 in 19 mi WNW 12.7 mph - -   Scattered Clouds
10:00 AM 51.8 °F 37.4 °F 58% 30.06 in 6.2 mi NW 11.5 mph - N/A   Partly Cloudy
10:30 AM 53.6 °F 37.4 °F 54% 30.06 in 6.2 mi NW 12.7 mph - N/A   Partly Cloudy
11:00 AM 55 °F 37 °F 39% 30.07 in - WNW 16.1 mph - -  
11:00 AM 53.6 °F 37.4 °F 54% 30.06 in 6.2 mi NW 15.0 mph 27.6 mph N/A   Partly Cloudy
11:30 AM 55.4 °F 37.4 °F 51% 30.04 in 6.2 mi NW 13.8 mph 25.3 mph N/A   Partly Cloudy
12:00 PM 57 °F 36 °F 33% 30.06 in - NW 13.8 mph - -  
12:00 PM 57.2 °F 37.4 °F 48% 30.04 in 6.2 mi NW 12.7 mph - N/A   Scattered Clouds
12:30 PM 57.2 °F 37.4 °F 48% 30.01 in 6.2 mi NW 12.7 mph 25.3 mph N/A   Scattered Clouds
1:00 PM 60 °F 35 °F 27% 30.01 in 19 mi WNW 17.3 mph - -   Partly Cloudy
1:00 PM 59.0 °F 35.6 °F 42% 30.01 in 6.2 mi WNW 15.0 mph 26.5 mph N/A   Scattered Clouds
1:30 PM 59.0 °F 33.8 °F 39% 29.98 in 6.2 mi WNW 19.6 mph 33.4 mph N/A   Scattered Clouds
2:00 PM 61 °F 34 °F 24% 29.98 in - WNW 20.7 mph - -  
2:00 PM 59.0 °F 33.8 °F 39% 29.98 in 6.2 mi WNW 20.7 mph - N/A   Partly Cloudy
2:30 PM 59.0 °F 35.6 °F 42% 29.95 in 6.2 mi NW 15.0 mph 26.5 mph N/A   Partly Cloudy
3:00 PM 61 °F 34 °F 24% 29.95 in - WNW 16.1 mph - -  
3:00 PM 60.8 °F 35.6 °F 39% 29.95 in 6.2 mi WNW 17.3 mph - N/A   Partly Cloudy
3:30 PM 60.8 °F 35.6 °F 39% 29.92 in 6.2 mi NW 15.0 mph - N/A   Partly Cloudy
4:00 PM 61 °F 34 °F 25% 29.92 in 19 mi WNW 15.0 mph - -   Scattered Clouds
4:00 PM 60.8 °F 35.6 °F 39% 29.92 in 6.2 mi NW 15.0 mph 28.8 mph N/A   Partly Cloudy
4:30 PM 60.8 °F 37.4 °F 42% 29.89 in 6.2 mi NW 12.7 mph 24.2 mph N/A   Partly Cloudy
5:00 PM 61 °F 36 °F 28% 29.89 in - WNW 13.8 mph - -  
5:00 PM 59.0 °F 37.4 °F 45% 29.89 in 6.2 mi WNW 12.7 mph - N/A   Partly Cloudy
5:30 PM 59.0 °F 37.4 °F 45% 29.86 in 6.2 mi WNW 11.5 mph - N/A   Partly Cloudy
6:00 PM 60 °F 37 °F 31% 29.88 in - WNW 10.4 mph - -  
6:00 PM 59.0 °F 37.4 °F 45% 29.86 in 6.2 mi NW 10.4 mph - N/A   Scattered Clouds
6:30 PM 57.2 °F 39.2 °F 51% 29.86 in 6.2 mi NW 9.2 mph - N/A   Scattered Clouds
7:00 PM 58 °F 39 °F 37% 29.87 in 16 mi WNW 10.4 mph - -   Partly Cloudy
7:00 PM 57.2 °F 39.2 °F 51% 29.86 in 6.2 mi WNW 9.2 mph - N/A   Scattered Clouds
7:30 PM 55.4 °F 39.2 °F 54% 29.86 in 6.2 mi SW 2.3 mph - N/A   Scattered Clouds
8:00 PM 57 °F 40 °F 41% 29.85 in - West 2.3 mph - -  
8:00 PM 55.4 °F 41.0 °F 58% 29.83 in 6.2 mi Variable 2.3 mph - N/A   Scattered Clouds
8:30 PM 55.4 °F 41.0 °F 58% 29.83 in 6.2 mi Variable 2.3 mph - N/A   Scattered Clouds
9:00 PM 56 °F 41 °F 46% 29.84 in - SSE 2.3 mph - -  
9:00 PM 53.6 °F 41.0 °F 62% 29.83 in 6.2 mi Variable 1.2 mph - N/A   Scattered Clouds
9:30 PM 53.6 °F 41.0 °F 62% 29.80 in 6.2 mi Variable 2.3 mph - N/A   Mostly Cloudy
10:00 PM 56 °F 43 °F 50% 29.82 in 12 mi NE 2.3 mph - -   Mostly Cloudy
10:00 PM 55.4 °F 42.8 °F 63% 29.80 in 6.2 mi Variable 2.3 mph - N/A   Mostly Cloudy
10:30 PM 53.6 °F 42.8 °F 67% 29.80 in 6.2 mi Calm Calm - N/A   Mostly Cloudy
11:00 PM 53 °F 42 °F 56% 29.81 in - SSW 2.3 mph - -  
11:00 PM 51.8 °F 42.8 °F 71% 29.80 in 6.2 mi Calm Calm - N/A   Mostly Cloudy
11:30 PM 51.8 °F 41.0 °F 67% 29.77 in 6.2 mi Variable 2.3 mph - N/A   Mostly Cloudy